Year,Month,Day,Hour,Minute,Value (Times are PST for temperature in C)
2007,06,26,00,00,10.90
2007,06,26,00,01,10.90
2007,06,26,00,02,10.80
2007,06,26,00,03,10.80
2007,06,26,00,04,10.70
2007,06,26,00,05,10.60
2007,06,26,00,06,10.60
2007,06,26,00,07,10.60
2007,06,26,00,08,10.50
2007,06,26,00,09,10.40
2007,06,26,00,10,10.40
2007,06,26,00,11,10.40
2007,06,26,00,12,10.40
2007,06,26,00,13,10.30
2007,06,26,00,14,10.30
2007,06,26,00,15,10.20
2007,06,26,00,16,10.20
2007,06,26,00,17,10.20
2007,06,26,00,18,10.20
2007,06,26,00,19,10.20
2007,06,26,00,20,10.20
2007,06,26,00,21,10.20
2007,06,26,00,22,10.20
2007,06,26,00,23,10.20
2007,06,26,00,24,10.20
2007,06,26,00,25,10.20
2007,06,26,00,26,10.20
2007,06,26,00,27,10.20
2007,06,26,00,28,10.20
2007,06,26,00,29,10.10
2007,06,26,00,30,10.10
2007,06,26,00,31,10.10
2007,06,26,00,32,10.10
2007,06,26,00,33,10.10
2007,06,26,00,34,10.10
2007,06,26,00,35,10.10
2007,06,26,00,36,10.10
2007,06,26,00,37,10.10
2007,06,26,00,38,10.10
2007,06,26,00,39,10.10
2007,06,26,00,40,10.10
2007,06,26,00,41,10.10
2007,06,26,00,42,10.10
2007,06,26,00,43,10.00
2007,06,26,00,44,9.90
2007,06,26,00,45,9.90
2007,06,26,00,46,9.90
2007,06,26,00,47,9.90
2007,06,26,00,48,9.90
2007,06,26,00,49,9.90
2007,06,26,00,50,9.90
2007,06,26,00,51,9.90
2007,06,26,00,52,9.90
2007,06,26,00,53,9.80
2007,06,26,00,54,9.80
2007,06,26,00,55,9.80
2007,06,26,00,56,9.80
2007,06,26,00,57,9.70
2007,06,26,00,58,9.70
2007,06,26,00,59,9.70
2007,06,26,01,00,9.70
2007,06,26,01,01,9.70
2007,06,26,01,02,9.70
2007,06,26,01,03,9.70
2007,06,26,01,04,9.70
2007,06,26,01,05,9.70
2007,06,26,01,06,9.70
2007,06,26,01,07,9.70
2007,06,26,01,08,9.60
2007,06,26,01,09,9.60
2007,06,26,01,10,9.60
2007,06,26,01,11,9.60
2007,06,26,01,12,9.50
2007,06,26,01,13,9.50
2007,06,26,01,14,9.50
2007,06,26,01,15,9.50
2007,06,26,01,16,9.40
2007,06,26,01,17,9.40
2007,06,26,01,18,9.40
2007,06,26,01,19,9.40
2007,06,26,01,20,9.40
2007,06,26,01,21,9.40
2007,06,26,01,22,9.40
2007,06,26,01,23,9.40
2007,06,26,01,24,9.40
2007,06,26,01,25,9.30
2007,06,26,01,26,9.30
2007,06,26,01,27,9.30
2007,06,26,01,28,9.30
2007,06,26,01,29,9.30
2007,06,26,01,30,9.30
2007,06,26,01,31,9.30
2007,06,26,01,32,9.30
2007,06,26,01,33,9.30
2007,06,26,01,34,9.30
2007,06,26,01,35,9.30
2007,06,26,01,36,9.30
2007,06,26,01,37,9.20
2007,06,26,01,38,9.20
2007,06,26,01,39,9.20
2007,06,26,01,40,9.20
2007,06,26,01,41,9.20
2007,06,26,01,42,9.20
2007,06,26,01,43,9.20
2007,06,26,01,44,9.20
2007,06,26,01,45,9.20
2007,06,26,01,46,9.20
2007,06,26,01,47,9.20
2007,06,26,01,48,9.20
2007,06,26,01,49,9.10
2007,06,26,01,50,9.10
2007,06,26,01,51,9.10
2007,06,26,01,52,9.00
2007,06,26,01,53,9.00
2007,06,26,01,54,9.00
2007,06,26,01,55,9.10
2007,06,26,01,56,9.10
2007,06,26,01,57,9.10
2007,06,26,01,58,9.10
2007,06,26,01,59,9.10
2007,06,26,02,00,9.10
2007,06,26,02,01,9.10
2007,06,26,02,02,9.10
2007,06,26,02,03,9.20
2007,06,26,02,04,9.20
2007,06,26,02,05,9.20
2007,06,26,02,06,9.20
2007,06,26,02,07,9.20
2007,06,26,02,08,9.10
2007,06,26,02,09,9.10
2007,06,26,02,10,9.00
2007,06,26,02,11,9.00
2007,06,26,02,12,8.90
2007,06,26,02,13,8.90
2007,06,26,02,14,8.90
2007,06,26,02,15,8.90
2007,06,26,02,16,8.80
2007,06,26,02,17,8.80
2007,06,26,02,18,8.80
2007,06,26,02,19,8.80
2007,06,26,02,20,8.80
2007,06,26,02,21,8.80
2007,06,26,02,22,8.80
2007,06,26,02,23,8.80
2007,06,26,02,24,8.80
2007,06,26,02,25,8.80
2007,06,26,02,26,8.80
2007,06,26,02,27,8.80
2007,06,26,02,28,8.80
2007,06,26,02,29,8.80
2007,06,26,02,30,8.80
2007,06,26,02,31,8.80
2007,06,26,02,32,8.70
2007,06,26,02,33,8.70
2007,06,26,02,34,8.70
2007,06,26,02,35,8.70
2007,06,26,02,36,8.70
2007,06,26,02,37,8.70
2007,06,26,02,38,8.70
2007,06,26,02,39,8.70
2007,06,26,02,40,8.70
2007,06,26,02,41,8.70
2007,06,26,02,42,8.70
2007,06,26,02,43,8.70
2007,06,26,02,44,8.70
2007,06,26,02,45,8.70
2007,06,26,02,46,8.70
2007,06,26,02,47,8.70
2007,06,26,02,48,8.70
2007,06,26,02,49,8.70
2007,06,26,02,50,8.60
2007,06,26,02,51,8.60
2007,06,26,02,52,8.60
2007,06,26,02,53,8.60
2007,06,26,02,54,8.60
2007,06,26,02,55,8.60
2007,06,26,02,56,8.60
2007,06,26,02,57,8.60
2007,06,26,02,58,8.60
2007,06,26,02,59,8.60
2007,06,26,03,00,8.60
2007,06,26,03,01,8.60
2007,06,26,03,02,8.60
2007,06,26,03,03,8.50
2007,06,26,03,04,8.50
2007,06,26,03,05,8.50
2007,06,26,03,06,8.50
2007,06,26,03,07,8.50
2007,06,26,03,08,8.50
2007,06,26,03,09,8.50
2007,06,26,03,10,8.50
2007,06,26,03,11,8.50
2007,06,26,03,12,8.40
2007,06,26,03,13,8.40
2007,06,26,03,14,8.40
2007,06,26,03,15,8.40
2007,06,26,03,16,8.40
2007,06,26,03,17,8.40
2007,06,26,03,18,8.40
2007,06,26,03,19,8.40
2007,06,26,03,20,8.40
2007,06,26,03,21,8.40
2007,06,26,03,22,8.30
2007,06,26,03,23,8.30
2007,06,26,03,24,8.30
2007,06,26,03,25,8.30
2007,06,26,03,26,8.30
2007,06,26,03,27,8.30
2007,06,26,03,28,8.20
2007,06,26,03,29,8.20
2007,06,26,03,30,8.20
2007,06,26,03,31,8.20
2007,06,26,03,32,8.20
2007,06,26,03,33,8.20
2007,06,26,03,34,8.20
2007,06,26,03,35,8.20
2007,06,26,03,36,8.20
2007,06,26,03,37,8.20
2007,06,26,03,38,8.20
2007,06,26,03,39,8.20
2007,06,26,03,40,8.20
2007,06,26,03,41,8.20
2007,06,26,03,42,8.10
2007,06,26,03,43,8.10
2007,06,26,03,44,8.10
2007,06,26,03,45,8.10
2007,06,26,03,46,8.10
2007,06,26,03,47,8.10
2007,06,26,03,48,8.10
2007,06,26,03,49,8.10
2007,06,26,03,50,8.10
2007,06,26,03,51,8.10
2007,06,26,03,52,8.10
2007,06,26,03,53,8.10
2007,06,26,03,54,8.10
2007,06,26,03,55,8.10
2007,06,26,03,56,8.10
2007,06,26,03,57,8.10
2007,06,26,03,58,8.20
2007,06,26,03,59,8.20
2007,06,26,04,00,8.20
2007,06,26,04,01,8.20
2007,06,26,04,02,8.20
2007,06,26,04,03,8.20
2007,06,26,04,04,8.20
2007,06,26,04,05,8.20
2007,06,26,04,06,8.10
2007,06,26,04,07,8.10
2007,06,26,04,08,8.10
2007,06,26,04,09,8.10
2007,06,26,04,10,8.10
2007,06,26,04,11,8.10
2007,06,26,04,12,8.10
2007,06,26,04,13,8.10
2007,06,26,04,14,8.10
2007,06,26,04,15,8.00
2007,06,26,04,16,8.00
2007,06,26,04,17,8.00
2007,06,26,04,18,7.90
2007,06,26,04,19,7.90
2007,06,26,04,20,7.90
2007,06,26,04,21,7.80
2007,06,26,04,22,7.80
2007,06,26,04,23,7.80
2007,06,26,04,24,7.80
2007,06,26,04,25,7.80
2007,06,26,04,26,7.80
2007,06,26,04,27,7.70
2007,06,26,04,28,7.70
2007,06,26,04,29,7.70
2007,06,26,04,30,7.80
2007,06,26,04,31,7.80
2007,06,26,04,32,7.80
2007,06,26,04,33,7.80
2007,06,26,04,34,7.80
2007,06,26,04,35,7.80
2007,06,26,04,36,7.80
2007,06,26,04,37,7.80
2007,06,26,04,38,7.80
2007,06,26,04,39,7.80
2007,06,26,04,40,7.80
2007,06,26,04,41,7.80
2007,06,26,04,42,7.80
2007,06,26,04,43,7.80
2007,06,26,04,44,7.80
2007,06,26,04,45,7.80
2007,06,26,04,46,7.80
2007,06,26,04,47,7.80
2007,06,26,04,48,7.80
2007,06,26,04,49,7.80
2007,06,26,04,50,7.80
2007,06,26,04,51,7.80
2007,06,26,04,52,7.80
2007,06,26,04,53,7.80
2007,06,26,04,54,7.80
2007,06,26,04,55,7.80
2007,06,26,04,56,7.80
2007,06,26,04,57,7.90
2007,06,26,04,58,7.90
2007,06,26,04,59,7.90
2007,06,26,05,00,8.00
2007,06,26,05,01,8.10
2007,06,26,05,02,8.20
2007,06,26,05,03,8.30
2007,06,26,05,04,8.30
2007,06,26,05,05,8.40
2007,06,26,05,06,8.30
2007,06,26,05,07,8.40
2007,06,26,05,08,8.50
2007,06,26,05,09,8.60
2007,06,26,05,10,8.60
2007,06,26,05,11,8.60
2007,06,26,05,12,8.60
2007,06,26,05,13,8.50
2007,06,26,05,14,8.50
2007,06,26,05,15,8.50
2007,06,26,05,16,8.40
2007,06,26,05,17,8.40
2007,06,26,05,18,8.40
2007,06,26,05,19,8.30
2007,06,26,05,20,8.30
2007,06,26,05,21,8.30
2007,06,26,05,22,8.30
2007,06,26,05,23,8.30
2007,06,26,05,24,8.30
2007,06,26,05,25,8.30
2007,06,26,05,26,8.30
2007,06,26,05,27,8.30
2007,06,26,05,28,8.20
2007,06,26,05,29,8.20
2007,06,26,05,30,8.20
2007,06,26,05,31,8.20
2007,06,26,05,32,8.20
2007,06,26,05,33,8.20
2007,06,26,05,34,8.20
2007,06,26,05,35,8.20
2007,06,26,05,36,8.20
2007,06,26,05,37,8.20
2007,06,26,05,38,8.20
2007,06,26,05,39,8.20
2007,06,26,05,40,8.20
2007,06,26,05,41,8.20
2007,06,26,05,42,8.20
2007,06,26,05,43,8.20
2007,06,26,05,44,8.20
2007,06,26,05,45,8.20
2007,06,26,05,46,8.20
2007,06,26,05,47,8.20
2007,06,26,05,48,8.20
2007,06,26,05,49,8.20
2007,06,26,05,50,8.20
2007,06,26,05,51,8.20
2007,06,26,05,52,8.20
2007,06,26,05,53,8.30
2007,06,26,05,54,8.30
2007,06,26,05,55,8.30
2007,06,26,05,56,8.30
2007,06,26,05,57,8.40
2007,06,26,05,58,8.40
2007,06,26,05,59,8.40
2007,06,26,06,00,8.50
2007,06,26,06,01,8.50
2007,06,26,06,02,8.50
2007,06,26,06,03,8.60
2007,06,26,06,04,8.60
2007,06,26,06,05,8.60
2007,06,26,06,06,8.70
2007,06,26,06,07,8.70
2007,06,26,06,08,8.70
2007,06,26,06,09,8.70
2007,06,26,06,10,8.80
2007,06,26,06,11,8.90
2007,06,26,06,12,8.90
2007,06,26,06,13,8.90
2007,06,26,06,14,9.00
2007,06,26,06,15,9.00
2007,06,26,06,16,9.00
2007,06,26,06,17,9.00
2007,06,26,06,18,9.10
2007,06,26,06,19,9.10
2007,06,26,06,20,9.20
2007,06,26,06,21,9.20
2007,06,26,06,22,9.30
2007,06,26,06,23,9.30
2007,06,26,06,24,9.40
2007,06,26,06,25,9.40
2007,06,26,06,26,9.50
2007,06,26,06,27,9.60
2007,06,26,06,28,9.60
2007,06,26,06,29,9.70
2007,06,26,06,30,9.70
2007,06,26,06,31,9.70
2007,06,26,06,32,9.80
2007,06,26,06,33,9.80
2007,06,26,06,34,9.90
2007,06,26,06,35,9.90
2007,06,26,06,36,9.90
2007,06,26,06,37,9.90
2007,06,26,06,38,10.10
2007,06,26,06,39,10.10
2007,06,26,06,40,10.10
2007,06,26,06,41,10.10
2007,06,26,06,42,10.10
2007,06,26,06,43,10.10
2007,06,26,06,44,10.10
2007,06,26,06,45,10.20
2007,06,26,06,46,10.20
2007,06,26,06,47,10.30
2007,06,26,06,48,10.30
2007,06,26,06,49,10.40
2007,06,26,06,50,10.40
2007,06,26,06,51,10.40
2007,06,26,06,52,10.40
2007,06,26,06,53,10.40
2007,06,26,06,54,10.40
2007,06,26,06,55,10.40
2007,06,26,06,56,10.40
2007,06,26,06,57,10.40
2007,06,26,06,58,10.40
2007,06,26,06,59,10.40
2007,06,26,07,00,10.40
2007,06,26,07,01,10.50
2007,06,26,07,02,10.60
2007,06,26,07,03,10.60
2007,06,26,07,04,10.60
2007,06,26,07,05,10.60
2007,06,26,07,06,10.70
2007,06,26,07,07,10.80
2007,06,26,07,08,10.90
2007,06,26,07,09,10.90
2007,06,26,07,10,11.00
2007,06,26,07,11,11.10
2007,06,26,07,12,11.20
2007,06,26,07,13,11.30
2007,06,26,07,14,11.40
2007,06,26,07,15,11.40
2007,06,26,07,16,11.50
2007,06,26,07,17,11.60
2007,06,26,07,18,11.60
2007,06,26,07,19,11.60
2007,06,26,07,20,11.60
2007,06,26,07,21,11.70
2007,06,26,07,22,11.80
2007,06,26,07,23,11.80
2007,06,26,07,24,11.90
2007,06,26,07,25,11.90
2007,06,26,07,26,12.00
2007,06,26,07,27,12.10
2007,06,26,07,28,12.20
2007,06,26,07,29,12.30
2007,06,26,07,30,12.30
2007,06,26,07,31,12.40
2007,06,26,07,32,12.50
2007,06,26,07,33,12.70
2007,06,26,07,34,12.80
2007,06,26,07,35,12.90
2007,06,26,07,36,13.00
2007,06,26,07,37,13.10
2007,06,26,07,38,13.20
2007,06,26,07,39,13.30
2007,06,26,07,40,13.40
2007,06,26,07,41,13.50
2007,06,26,07,42,13.60
2007,06,26,07,43,13.70
2007,06,26,07,44,13.70
2007,06,26,07,45,13.70
2007,06,26,07,46,13.70
2007,06,26,07,47,13.70
2007,06,26,07,48,13.70
2007,06,26,07,49,13.70
2007,06,26,07,50,13.80
2007,06,26,07,51,13.80
2007,06,26,07,52,13.80
2007,06,26,07,53,13.90
2007,06,26,07,54,13.90
2007,06,26,07,55,14.00
2007,06,26,07,56,14.00
2007,06,26,07,57,14.20
2007,06,26,07,58,14.30
2007,06,26,07,59,14.40
2007,06,26,08,00,14.50
2007,06,26,08,01,14.60
2007,06,26,08,02,14.70
2007,06,26,08,03,14.80
2007,06,26,08,04,14.90
2007,06,26,08,05,15.00
2007,06,26,08,06,15.00
2007,06,26,08,07,15.00
2007,06,26,08,08,15.10
2007,06,26,08,09,15.10
2007,06,26,08,10,15.20
2007,06,26,08,11,15.20
2007,06,26,08,12,15.30
2007,06,26,08,13,15.30
2007,06,26,08,14,15.40
2007,06,26,08,15,15.50
2007,06,26,08,16,15.50
2007,06,26,08,17,15.50
2007,06,26,08,18,15.50
2007,06,26,08,19,15.50
2007,06,26,08,20,15.50
2007,06,26,08,21,15.50
2007,06,26,08,22,15.50
2007,06,26,08,23,15.50
2007,06,26,08,24,15.40
2007,06,26,08,25,15.30
2007,06,26,08,26,15.30
2007,06,26,08,27,15.40
2007,06,26,08,28,15.40
2007,06,26,08,29,15.50
2007,06,26,08,30,15.60
2007,06,26,08,31,15.70
2007,06,26,08,32,15.80
2007,06,26,08,33,15.80
2007,06,26,08,34,15.80
2007,06,26,08,35,15.80
2007,06,26,08,36,15.90
2007,06,26,08,37,16.00
2007,06,26,08,38,16.10
2007,06,26,08,39,16.20
2007,06,26,08,40,16.30
2007,06,26,08,41,16.30
2007,06,26,08,42,16.40
2007,06,26,08,43,16.40
2007,06,26,08,44,16.50
2007,06,26,08,45,16.60
2007,06,26,08,46,16.70
2007,06,26,08,47,16.80
2007,06,26,08,48,16.90
2007,06,26,08,49,17.10
2007,06,26,08,50,17.20
2007,06,26,08,51,17.30
2007,06,26,08,52,17.30
2007,06,26,08,53,17.30
2007,06,26,08,54,17.30
2007,06,26,08,55,17.30
2007,06,26,08,56,17.40
2007,06,26,08,57,17.40
2007,06,26,08,58,17.50
2007,06,26,08,59,17.50
2007,06,26,09,00,17.40
2007,06,26,09,01,17.40
2007,06,26,09,02,17.40
2007,06,26,09,03,17.50
2007,06,26,09,04,17.50
2007,06,26,09,05,17.50
2007,06,26,09,06,17.60
2007,06,26,09,07,17.70
2007,06,26,09,08,17.80
2007,06,26,09,09,17.90
2007,06,26,09,10,17.70
2007,06,26,09,11,17.60
2007,06,26,09,12,17.50
2007,06,26,09,13,17.50
2007,06,26,09,14,17.40
2007,06,26,09,15,17.30
2007,06,26,09,16,17.30
2007,06,26,09,17,17.30
2007,06,26,09,18,17.10
2007,06,26,09,19,17.00
2007,06,26,09,20,17.00
2007,06,26,09,21,16.90
2007,06,26,09,22,16.90
2007,06,26,09,23,16.90
2007,06,26,09,24,16.90
2007,06,26,09,25,16.90
2007,06,26,09,26,16.90
2007,06,26,09,27,16.90
2007,06,26,09,28,16.90
2007,06,26,09,29,16.90
2007,06,26,09,30,16.90
2007,06,26,09,31,16.90
2007,06,26,09,32,16.90
2007,06,26,09,33,16.90
2007,06,26,09,34,17.00
2007,06,26,09,35,17.00
2007,06,26,09,36,17.10
2007,06,26,09,37,17.10
2007,06,26,09,38,17.20
2007,06,26,09,39,17.30
2007,06,26,09,40,17.30
2007,06,26,09,41,17.30
2007,06,26,09,42,17.30
2007,06,26,09,43,17.30
2007,06,26,09,44,17.30
2007,06,26,09,45,17.30
2007,06,26,09,46,17.30
2007,06,26,09,47,17.30
2007,06,26,09,48,17.30
2007,06,26,09,49,17.30
2007,06,26,09,50,17.30
2007,06,26,09,51,17.40
2007,06,26,09,52,17.40
2007,06,26,09,53,17.40
2007,06,26,09,54,17.50
2007,06,26,09,55,17.50
2007,06,26,09,56,17.50
2007,06,26,09,57,17.50
2007,06,26,09,58,17.50
2007,06,26,09,59,17.40
2007,06,26,10,00,17.40
2007,06,26,10,01,17.40
2007,06,26,10,02,17.40
2007,06,26,10,03,17.40
2007,06,26,10,04,17.40
2007,06,26,10,05,17.40
2007,06,26,10,06,17.40
2007,06,26,10,07,17.40
2007,06,26,10,08,17.40
2007,06,26,10,09,17.50
2007,06,26,10,10,17.60
2007,06,26,10,11,17.70
2007,06,26,10,12,17.80
2007,06,26,10,13,17.80
2007,06,26,10,14,17.90
2007,06,26,10,15,17.90
2007,06,26,10,16,17.80
2007,06,26,10,17,17.70
2007,06,26,10,18,17.70
2007,06,26,10,19,17.70
2007,06,26,10,20,17.70
2007,06,26,10,21,17.80
2007,06,26,10,22,18.00
2007,06,26,10,23,18.10
2007,06,26,10,24,18.10
2007,06,26,10,25,18.10
2007,06,26,10,26,18.10
2007,06,26,10,27,18.20
2007,06,26,10,28,18.20
2007,06,26,10,29,18.30
2007,06,26,10,30,18.40
2007,06,26,10,31,18.30
2007,06,26,10,32,18.40
2007,06,26,10,33,18.40
2007,06,26,10,34,18.40
2007,06,26,10,35,18.40
2007,06,26,10,36,18.50
2007,06,26,10,37,18.50
2007,06,26,10,38,18.50
2007,06,26,10,39,18.50
2007,06,26,10,40,18.50
2007,06,26,10,41,18.40
2007,06,26,10,42,18.30
2007,06,26,10,43,18.30
2007,06,26,10,44,18.30
2007,06,26,10,45,18.30
2007,06,26,10,46,18.30
2007,06,26,10,47,18.40
2007,06,26,10,48,18.50
2007,06,26,10,49,18.50
2007,06,26,10,50,18.50
2007,06,26,10,51,18.50
2007,06,26,10,52,18.60
2007,06,26,10,53,18.60
2007,06,26,10,54,18.60
2007,06,26,10,55,18.60
2007,06,26,10,56,18.70
2007,06,26,10,57,18.80
2007,06,26,10,58,18.90
2007,06,26,10,59,18.90
2007,06,26,11,00,18.90
2007,06,26,11,01,18.90
2007,06,26,11,02,19.00
2007,06,26,11,03,19.10
2007,06,26,11,04,19.10
2007,06,26,11,05,19.10
2007,06,26,11,06,19.20
2007,06,26,11,07,19.30
2007,06,26,11,08,19.30
2007,06,26,11,09,19.20
2007,06,26,11,10,19.20
2007,06,26,11,11,19.20
2007,06,26,11,12,19.10
2007,06,26,11,13,19.10
2007,06,26,11,14,19.10
2007,06,26,11,15,19.20
2007,06,26,11,16,19.20
2007,06,26,11,17,19.20
2007,06,26,11,18,19.30
2007,06,26,11,19,19.40
2007,06,26,11,20,19.50
2007,06,26,11,21,19.50
2007,06,26,11,22,19.60
2007,06,26,11,23,19.60
2007,06,26,11,24,19.60
2007,06,26,11,25,19.50
2007,06,26,11,26,19.40
2007,06,26,11,27,19.30
2007,06,26,11,28,19.30
2007,06,26,11,29,19.40
2007,06,26,11,30,19.50
2007,06,26,11,31,19.60
2007,06,26,11,32,19.70
2007,06,26,11,33,19.70
2007,06,26,11,34,19.80
2007,06,26,11,35,19.80
2007,06,26,11,36,19.80
2007,06,26,11,37,19.90
2007,06,26,11,38,19.90
2007,06,26,11,39,20.00
2007,06,26,11,40,20.10
2007,06,26,11,41,20.00
2007,06,26,11,42,19.90
2007,06,26,11,43,19.90
2007,06,26,11,44,19.90
2007,06,26,11,45,19.90
2007,06,26,11,46,19.90
2007,06,26,11,47,19.90
2007,06,26,11,48,19.90
2007,06,26,11,49,19.90
2007,06,26,11,50,20.00
2007,06,26,11,51,20.10
2007,06,26,11,52,20.20
2007,06,26,11,53,20.20
2007,06,26,11,54,20.30
2007,06,26,11,55,20.30
2007,06,26,11,56,20.30
2007,06,26,11,57,20.30
2007,06,26,11,58,20.20
2007,06,26,11,59,20.30
2007,06,26,12,00,20.40
2007,06,26,12,01,20.40
2007,06,26,12,02,20.50
2007,06,26,12,03,20.50
2007,06,26,12,04,20.50
2007,06,26,12,05,20.50
2007,06,26,12,06,20.50
2007,06,26,12,07,20.50
2007,06,26,12,08,20.40
2007,06,26,12,09,20.40
2007,06,26,12,10,20.40
2007,06,26,12,11,20.30
2007,06,26,12,12,20.30
2007,06,26,12,13,20.40
2007,06,26,12,14,20.40
2007,06,26,12,15,20.40
2007,06,26,12,16,20.40
2007,06,26,12,17,20.50
2007,06,26,12,18,20.40
2007,06,26,12,19,20.40
2007,06,26,12,20,20.40
2007,06,26,12,21,20.50
2007,06,26,12,22,20.50
2007,06,26,12,23,20.50
2007,06,26,12,24,20.50
2007,06,26,12,25,20.50
2007,06,26,12,26,20.50
2007,06,26,12,27,20.50
2007,06,26,12,28,20.50
2007,06,26,12,29,20.50
2007,06,26,12,30,20.50
2007,06,26,12,31,20.50
2007,06,26,12,32,20.50
2007,06,26,12,33,20.60
2007,06,26,12,34,20.60
2007,06,26,12,35,20.70
2007,06,26,12,36,20.60
2007,06,26,12,37,20.40
2007,06,26,12,38,20.10
2007,06,26,12,39,19.90
2007,06,26,12,40,19.70
2007,06,26,12,41,19.60
2007,06,26,12,42,19.50
2007,06,26,12,43,19.50
2007,06,26,12,44,19.40
2007,06,26,12,45,19.30
2007,06,26,12,46,19.30
2007,06,26,12,47,19.40
2007,06,26,12,48,19.50
2007,06,26,12,49,19.60
2007,06,26,12,50,19.80
2007,06,26,12,51,19.90
2007,06,26,12,52,19.90
2007,06,26,12,53,19.80
2007,06,26,12,54,19.80
2007,06,26,12,55,19.80
2007,06,26,12,56,19.70
2007,06,26,12,57,19.50
2007,06,26,12,58,19.40
2007,06,26,12,59,19.40
2007,06,26,13,00,19.40
2007,06,26,13,01,19.40
2007,06,26,13,02,19.40
2007,06,26,13,03,19.50
2007,06,26,13,04,19.60
2007,06,26,13,05,19.70
2007,06,26,13,06,19.70
2007,06,26,13,07,19.70
2007,06,26,13,08,19.90
2007,06,26,13,09,20.00
2007,06,26,13,10,20.10
2007,06,26,13,11,20.10
2007,06,26,13,12,19.90
2007,06,26,13,13,19.70
2007,06,26,13,14,19.60
2007,06,26,13,15,19.60
2007,06,26,13,16,19.60
2007,06,26,13,17,19.60
2007,06,26,13,18,19.60
2007,06,26,13,19,19.50
2007,06,26,13,20,19.30
2007,06,26,13,21,19.10
2007,06,26,13,22,18.90
2007,06,26,13,23,18.70
2007,06,26,13,24,18.60
2007,06,26,13,25,18.40
2007,06,26,13,26,18.20
2007,06,26,13,27,18.00
2007,06,26,13,28,17.90
2007,06,26,13,29,17.80
2007,06,26,13,30,17.70
2007,06,26,13,31,17.70
2007,06,26,13,32,17.70
2007,06,26,13,33,17.70
2007,06,26,13,34,17.80
2007,06,26,13,35,17.80
2007,06,26,13,36,17.90
2007,06,26,13,37,17.90
2007,06,26,13,38,17.90
2007,06,26,13,39,17.90
2007,06,26,13,40,17.90
2007,06,26,13,41,17.90
2007,06,26,13,42,17.80
2007,06,26,13,43,17.80
2007,06,26,13,44,17.90
2007,06,26,13,45,17.90
2007,06,26,13,46,17.90
2007,06,26,13,47,17.90
2007,06,26,13,48,17.90
2007,06,26,13,49,18.00
2007,06,26,13,50,18.00
2007,06,26,13,51,17.90
2007,06,26,13,52,17.90
2007,06,26,13,53,17.90
2007,06,26,13,54,17.70
2007,06,26,13,55,17.60
2007,06,26,13,56,17.50
2007,06,26,13,57,17.40
2007,06,26,13,58,17.30
2007,06,26,13,59,17.40
2007,06,26,14,00,17.40
2007,06,26,14,01,17.50
2007,06,26,14,02,17.60
2007,06,26,14,03,17.70
2007,06,26,14,04,17.70
2007,06,26,14,05,17.80
2007,06,26,14,06,17.80
2007,06,26,14,07,17.70
2007,06,26,14,08,17.60
2007,06,26,14,09,17.60
2007,06,26,14,10,17.70
2007,06,26,14,11,17.70
2007,06,26,14,12,17.70
2007,06,26,14,13,17.70
2007,06,26,14,14,17.60
2007,06,26,14,15,17.50
2007,06,26,14,16,17.50
2007,06,26,14,17,17.40
2007,06,26,14,18,17.30
2007,06,26,14,19,17.30
2007,06,26,14,20,17.30
2007,06,26,14,21,17.30
2007,06,26,14,22,17.50
2007,06,26,14,23,17.50
2007,06,26,14,24,17.60
2007,06,26,14,25,17.70
2007,06,26,14,26,17.80
2007,06,26,14,27,17.90
2007,06,26,14,28,17.90
2007,06,26,14,29,17.80
2007,06,26,14,30,17.50
2007,06,26,14,31,17.30
2007,06,26,14,32,17.10
2007,06,26,14,33,17.00
2007,06,26,14,34,17.00
2007,06,26,14,35,16.90
2007,06,26,14,36,16.90
2007,06,26,14,37,16.80
2007,06,26,14,38,16.80
2007,06,26,14,39,16.80
2007,06,26,14,40,16.70
2007,06,26,14,41,16.70
2007,06,26,14,42,16.70
2007,06,26,14,43,16.70
2007,06,26,14,44,16.70
2007,06,26,14,45,16.70
2007,06,26,14,46,16.70
2007,06,26,14,47,16.60
2007,06,26,14,48,16.60
2007,06,26,14,49,16.40
2007,06,26,14,50,16.40
2007,06,26,14,51,16.40
2007,06,26,14,52,16.40
2007,06,26,14,53,16.40
2007,06,26,14,54,16.40
2007,06,26,14,55,16.40
2007,06,26,14,56,16.40
2007,06,26,14,57,16.40
2007,06,26,14,58,16.40
2007,06,26,14,59,16.40
2007,06,26,15,00,16.40
2007,06,26,15,01,16.30
2007,06,26,15,02,16.30
2007,06,26,15,03,16.30
2007,06,26,15,04,16.30
2007,06,26,15,05,16.20
2007,06,26,15,06,16.20
2007,06,26,15,07,16.20
2007,06,26,15,08,16.20
2007,06,26,15,09,16.20
2007,06,26,15,10,16.20
2007,06,26,15,11,16.20
2007,06,26,15,12,16.20
2007,06,26,15,13,16.20
2007,06,26,15,14,16.30
2007,06,26,15,15,16.30
2007,06,26,15,16,16.40
2007,06,26,15,17,16.40
2007,06,26,15,18,16.50
2007,06,26,15,19,16.60
2007,06,26,15,20,16.70
2007,06,26,15,21,16.70
2007,06,26,15,22,16.70
2007,06,26,15,23,16.70
2007,06,26,15,24,16.70
2007,06,26,15,25,16.70
2007,06,26,15,26,16.50
2007,06,26,15,27,16.50
2007,06,26,15,28,16.60
2007,06,26,15,29,16.60
2007,06,26,15,30,16.60
2007,06,26,15,31,16.60
2007,06,26,15,32,16.60
2007,06,26,15,33,16.60
2007,06,26,15,34,16.60
2007,06,26,15,35,16.70
2007,06,26,15,36,16.50
2007,06,26,15,37,16.40
2007,06,26,15,38,16.40
2007,06,26,15,39,16.40
2007,06,26,15,40,16.40
2007,06,26,15,41,16.40
2007,06,26,15,42,16.40
2007,06,26,15,43,16.50
2007,06,26,15,44,16.60
2007,06,26,15,45,16.70
2007,06,26,15,46,16.70
2007,06,26,15,47,16.70
2007,06,26,15,48,16.70
2007,06,26,15,49,16.70
2007,06,26,15,50,16.80
2007,06,26,15,51,16.80
2007,06,26,15,52,16.90
2007,06,26,15,53,17.00
2007,06,26,15,54,17.00
2007,06,26,15,55,17.00
2007,06,26,15,56,17.10
2007,06,26,15,57,17.10
2007,06,26,15,58,17.20
2007,06,26,15,59,17.30
2007,06,26,16,00,17.30
2007,06,26,16,01,17.30
2007,06,26,16,02,17.30
2007,06,26,16,03,17.30
2007,06,26,16,04,17.30
2007,06,26,16,05,17.30
2007,06,26,16,06,17.40
2007,06,26,16,07,17.40
2007,06,26,16,08,17.30
2007,06,26,16,09,17.30
2007,06,26,16,10,17.30
2007,06,26,16,11,17.30
2007,06,26,16,12,17.30
2007,06,26,16,13,17.30
2007,06,26,16,14,17.40
2007,06,26,16,15,17.40
2007,06,26,16,16,17.30
2007,06,26,16,17,17.40
2007,06,26,16,18,17.40
2007,06,26,16,19,17.40
2007,06,26,16,20,17.50
2007,06,26,16,21,17.50
2007,06,26,16,22,17.60
2007,06,26,16,23,17.60
2007,06,26,16,24,17.50
2007,06,26,16,25,17.50
2007,06,26,16,26,17.50
2007,06,26,16,27,17.50
2007,06,26,16,28,17.40
2007,06,26,16,29,17.40
2007,06,26,16,30,17.50
2007,06,26,16,31,17.50
2007,06,26,16,32,17.60
2007,06,26,16,33,17.60
2007,06,26,16,34,17.60
2007,06,26,16,35,17.70
2007,06,26,16,36,17.70
2007,06,26,16,37,17.70
2007,06,26,16,38,17.70
2007,06,26,16,39,17.60
2007,06,26,16,40,17.60
2007,06,26,16,41,17.60
2007,06,26,16,42,17.60
2007,06,26,16,43,17.50
2007,06,26,16,44,17.50
2007,06,26,16,45,17.50
2007,06,26,16,46,17.40
2007,06,26,16,47,17.40
2007,06,26,16,48,17.30
2007,06,26,16,49,17.30
2007,06,26,16,50,17.30
2007,06,26,16,51,17.20
2007,06,26,16,52,17.20
2007,06,26,16,53,17.10
2007,06,26,16,54,17.10
2007,06,26,16,55,17.10
2007,06,26,16,56,17.10
2007,06,26,16,57,17.10
2007,06,26,16,58,17.10
2007,06,26,16,59,17.00
2007,06,26,17,00,17.00
2007,06,26,17,01,17.00
2007,06,26,17,02,16.90
2007,06,26,17,03,16.90
2007,06,26,17,04,17.00
2007,06,26,17,05,17.00
2007,06,26,17,06,17.00
2007,06,26,17,07,17.00
2007,06,26,17,08,17.00
2007,06,26,17,09,17.10
2007,06,26,17,10,17.10
2007,06,26,17,11,17.10
2007,06,26,17,12,17.10
2007,06,26,17,13,17.20
2007,06,26,17,14,17.20
2007,06,26,17,15,17.20
2007,06,26,17,16,17.30
2007,06,26,17,17,17.30
2007,06,26,17,18,17.30
2007,06,26,17,19,17.30
2007,06,26,17,20,17.40
2007,06,26,17,21,17.40
2007,06,26,17,22,17.40
2007,06,26,17,23,17.40
2007,06,26,17,24,17.40
2007,06,26,17,25,17.40
2007,06,26,17,26,17.40
2007,06,26,17,27,17.40
2007,06,26,17,28,17.40
2007,06,26,17,29,17.50
2007,06,26,17,30,17.50
2007,06,26,17,31,17.50
2007,06,26,17,32,17.50
2007,06,26,17,33,17.50
2007,06,26,17,34,17.50